Weather History for Amarillo, TX

Change the Weather History Date:

Wednesday, December 12, 2012

  Actual Average Record
Temperature  
Mean Temperature 43 °F 37 °F  
Max Temperature 63 °F 50 °F 76 °F (1995)
Min Temperature 23 °F 24 °F -3 °F (1961)
Degree Days  
Heating Degree Days 22 28  
Month to date heating degree days 225 323  
Since 1 July heating degree days 864 1167  
Cooling Degree Days 0 0  
Month to date cooling degree days 0 0  
Year to date cooling degree days 2011 1399  
Moisture  
Dew Point 10 °F    
Average Humidity 32    
Maximum Humidity 50    
Minimum Humidity 13    
Precipitation  
Precipitation 0.00 in 0.02 in 0.97 in (1905)
Month to date precipitation T 0.26  
Year to date precipitation 11.79 19.91  
Snow  
Snow 0.00 in 0.10 in 3.80 in (1905)
Month to date snowfall 0.1 1.5  
Since 1 July snowfall 0.1 4.2  
Snow Depth 0.00 in    
Sea Level Pressure  
Sea Level Pressure 30.02 in    
Wind  
Wind Speed 14 mph (SSW)    
Max Wind Speed 28 mph    
Max Gust Speed 32 mph    
Visibility 10 miles    
Events      
T = Trace of Precipitation, MM = Missing Value Source: NWS Daily Summary

Daily Weather History Graph

Daily Weather History Graph

Search for Another Location

Airport:

Trip Planner

Search our weather history database for the weather conditions in past years. The results will help you decide how hot, cold, wet, or windy it might be!

Date:

Astronomy

Dec. 12, 2012 Rise Set
Actual Time 7:46 AM CST 5:35 PM CST
Civil Twilight 7:18 AM CST 6:03 PM CST
Nautical Twilight 6:46 AM CST 6:35 PM CST
Astronomical Twilight 6:15 AM CST 7:06 PM CST
Moon 6:53 AM CST (12/12) 5:13 PM CST (12/12)
Length of Visible Light 10h 45m
Length of Day
9h 48m
Waning Crescent, 1% of the Moon is Illuminated
Dec 12
Waning Crescent
Dec 13
New
Dec 19
First Quarter
Dec 28
Full
Jan 4
Last Quarter

Hourly Weather History & Observations

Time (CST) Temp. Windchill Dew Point Humidity Pressure Visibility Wind Dir Wind Speed Gust Speed Precip Events Conditions
12:53 AM 27.0 °F 16.1 °F 10.0 °F 49% 30.08 in 10.0 mi South 12.7 mph - N/A   Clear
1:53 AM 26.1 °F 15.0 °F 10.0 °F 51% 30.06 in 10.0 mi South 12.7 mph - N/A   Clear
2:53 AM 26.1 °F 14.5 °F 10.9 °F 53% 30.06 in 10.0 mi South 13.8 mph - N/A   Clear
3:53 AM 26.1 °F 15.0 °F 10.9 °F 53% 30.04 in 10.0 mi South 12.7 mph - N/A   Clear
4:53 AM 27.0 °F 16.7 °F 10.0 °F 49% 30.04 in 10.0 mi South 11.5 mph - N/A   Clear
5:53 AM 27.0 °F 17.3 °F 10.0 °F 49% 30.04 in 10.0 mi South 10.4 mph - N/A   Clear
6:53 AM 27.0 °F 16.1 °F 9.0 °F 47% 30.04 in 10.0 mi South 12.7 mph - N/A   Clear
7:53 AM 24.1 °F 14.4 °F 9.0 °F 53% 30.06 in 10.0 mi South 9.2 mph - N/A   Clear
8:53 AM 33.1 °F 24.9 °F 10.9 °F 40% 30.05 in 10.0 mi SSW 10.4 mph - N/A   Clear
9:53 AM 41.0 °F 31.9 °F 12.0 °F 31% 30.03 in 10.0 mi SW 19.6 mph 26.5 mph N/A   Clear
10:53 AM 46.0 °F 38.3 °F 12.9 °F 26% 30.04 in 10.0 mi SW 20.7 mph 32.2 mph N/A   Clear
11:53 AM 52.0 °F - 12.9 °F 21% 30.01 in 10.0 mi SW 20.7 mph 27.6 mph N/A   Clear
12:53 PM 57.0 °F - 12.9 °F 18% 29.96 in 10.0 mi SW 21.9 mph 26.5 mph N/A   Clear
1:53 PM 61.0 °F - 12.9 °F 15% 29.93 in 10.0 mi SSW 19.6 mph 25.3 mph N/A   Clear
2:53 PM 63.0 °F - 10.9 °F 13% 29.91 in 10.0 mi SSW 15.0 mph 25.3 mph N/A   Clear
3:53 PM 63.0 °F - 10.9 °F 13% 29.92 in 10.0 mi SSW 16.1 mph 23.0 mph N/A   Clear
4:53 PM 59.0 °F - 12.0 °F 16% 29.94 in 10.0 mi SW 20.7 mph - N/A   Clear
5:53 PM 51.1 °F - 12.0 °F 21% 29.97 in 10.0 mi SSW 12.7 mph - N/A   Clear
6:53 PM 44.1 °F 40.1 °F 10.0 °F 25% 30.00 in 10.0 mi SSW 6.9 mph - N/A   Clear
7:53 PM 42.1 °F 36.6 °F 9.0 °F 26% 30.03 in 10.0 mi SSW 9.2 mph - N/A   Clear
8:53 PM 41.0 °F 34.3 °F 9.0 °F 27% 30.04 in 10.0 mi South 11.5 mph - N/A   Clear
9:53 PM 39.9 °F 32.9 °F 9.0 °F 28% 30.02 in 10.0 mi South 11.5 mph - N/A   Clear
10:53 PM 37.9 °F 30.0 °F 8.1 °F 29% 30.03 in 10.0 mi South 12.7 mph - N/A   Clear
11:53 PM 33.1 °F 26.1 °F 7.0 °F 34% 30.04 in 10.0 mi SSW 8.1 mph - N/A   Clear